This demonstration page uses our WeatherBlox Daily Observations layout. Learn more.

Left ArrowRight Arrow

Hourly Observations for October 17, 2015

Temp ( °F °C ) Dew Point ( °F °C ) Humidity (%) Winds ( mph kmh ) Pressure ( in mb ) Visibility ( mi km ) Precip ( " mm )
12:53 am 00:53 Mostly Clear 65 18.3 50 10 59 59 NNW 3 6 29.83 1010 10 16 0.00 0.00
1:53 am 01:53 Cloudy 67 19.4 50 10 55 55 NW 5 7 29.83 1010 10 16 0.00 0.00
2:53 am 02:53 Mostly Cloudy 68 20 50 10 53 53 Calm 29.82 1010 10 16 0.00 0.00
3:53 am 03:53 Cloudy 68 20 52 11.1 57 57 Calm 29.81 1010 10 16 0.00 0.00
4:53 am 04:53 Cloudy 68 20 52 11.1 57 57 VRB 5 7 29.81 1009 10 16 0.00 0.00
5:53 am 05:53 Cloudy 70 21.1 55 12.8 59 59 S 5 7 29.84 1011 10 16 0.00 0.00
6:53 am 06:53 Cloudy with Light Rain 64 17.8 59 15 84 84 WNW 3 6 29.88 1012 6 10 0.05 1.27
7:53 am 07:53 Cloudy 63 17.2 59 15 87 87 NE 7 11 29.89 1012 10 16 0.01 0.25
8:53 am 08:53 Cloudy 64 17.8 59 15 84 84 NE 5 7 29.91 1013 10 16 0.00 0.00
9:11 am 09:11 Cloudy 64 17.8 59 15 84 84 NW 3 6 29.91 1013 10 16 0.00 0.00
9:53 am 09:53 Cloudy 65 18.3 60 15.6 84 84 NNE 6 9 29.92 1013 10 16 0.01 0.25
10:53 am 10:53 Cloudy 66 18.9 61 16.1 84 84 WNW 3 6 29.92 1013 10 16 0.00 0.03
11:53 am 11:53 Cloudy 68 20 62 16.7 81 81 W 3 6 29.91 1013 10 16 0.00 0.00
12:53 pm 12:53 Cloudy 70 21.1 60 15.6 71 71 SSE 7 11 29.91 1013 10 16 0.00 0.00
1:07 pm 13:07 Mostly Cloudy 71 21.7 61 16.1 71 71 VRB 5 7 29.91 1013 10 16 0.00 0.00
1:53 pm 13:53 Partly Cloudy 74 23.3 59 15 60 60 SSE 12 19 29.89 1012 10 16 0.00 0.00
2:53 pm 14:53 Partly Cloudy 76 24.4 53 11.7 45 45 SSE 10 17 29.86 1011 10 16 0.00 0.00
3:53 pm 15:53 Mostly Cloudy 75 23.9 49 9.4 40 40 SSE 10 17 29.86 1011 10 16 0.00 0.00
4:53 pm 16:53 Mostly Cloudy 75 23.9 49 9.4 40 40 SE 10 17 29.85 1011 10 16 0.00 0.00
5:53 pm 17:53 Mostly Cloudy 73 22.8 45 7.2 37 37 SSE 7 11 29.85 1011 10 16 0.00 0.00
6:53 pm 18:53 Cloudy 71 21.7 49 9.4 46 46 S 3 6 29.87 1011 10 16 0.00 0.00
7:53 pm 19:53 Cloudy 70 21.1 51 10.6 51 51 SSE 5 7 29.88 1012 10 16 0.00 0.00
8:53 pm 20:53 Mostly Cloudy 68 20 52 11.1 57 57 Calm 29.89 1012 10 16 0.00 0.00
9:53 pm 21:53 Cloudy 67 19.4 54 12.2 63 63 Calm 29.91 1013 10 16 0.00 0.00
10:53 pm 22:53 Mostly Cloudy 64 17.8 58 14.4 81 81 Calm 29.92 1013 10 16 0.01 0.25
11:53 pm 23:53 Cloudy with Light Rain 64 17.8 59 15 84 84 NW 5 7 29.92 1013 9 14 0.00 0.03

Powered by AerisWeather